Time,TemperatureF,DewpointF,PressureIn,WindDirection,WindDirectionDegrees,WindSpeedMPH,WindSpeedGustMPH,Humidity,HourlyPrecipIn,Conditions,Clouds,dailyrainin,SolarRadiationWatts/m^2,SoftwareType,DateUTC
2013-02-27 00:00:00,66.7,64.0,29.85,WSW,256,13.0,13.0,91,0.00,,,0.04,0,Wunderground v.1.15,2013-02-27 05:00:00,
2013-02-27 00:01:00,66.7,64.0,29.85,WSW,252,13.0,20.0,91,0.00,,,0.04,0,Wunderground v.1.15,2013-02-27 05:01:00,
2013-02-27 00:02:00,66.7,64.0,29.85,WSW,252,13.0,20.0,91,0.00,,,0.04,0,Wunderground v.1.15,2013-02-27 05:02:00,
2013-02-27 00:08:00,66.7,64.3,29.86,West,261,12.0,20.0,92,0.00,,,0.04,0,Wunderground v.1.15,2013-02-27 05:08:00,
2013-02-27 00:11:00,66.6,64.2,29.86,WSW,248,12.0,20.0,92,0.00,,,0.04,0,Wunderground v.1.15,2013-02-27 05:11:00,
2013-02-27 00:16:00,66.5,64.1,29.86,WSW,256,12.0,20.0,92,0.00,,,0.04,0,Wunderground v.1.15,2013-02-27 05:16:00,
2013-02-27 00:22:00,66.3,63.9,29.85,WSW,252,12.0,20.0,92,0.00,,,0.04,0,Wunderground v.1.15,2013-02-27 05:22:00,
2013-02-27 00:27:00,66.4,64.0,29.86,WSW,256,12.0,20.0,92,0.00,,,0.04,0,Wunderground v.1.15,2013-02-27 05:27:00,
2013-02-27 00:32:00,66.3,63.9,29.86,West,265,12.0,20.0,92,0.00,,,0.04,0,Wunderground v.1.15,2013-02-27 05:32:00,
2013-02-27 00:38:00,66.1,63.7,29.87,West,265,12.0,20.0,92,0.00,,,0.00,0,Wunderground v.1.15,2013-02-27 05:38:00,
2013-02-27 00:43:00,66.0,63.9,29.87,West,263,11.0,20.0,93,0.00,,,0.00,0,Wunderground v.1.15,2013-02-27 05:43:00,
2013-02-27 00:48:00,65.8,63.7,29.87,WSW,256,11.0,20.0,93,0.00,,,0.00,0,Wunderground v.1.15,2013-02-27 05:48:00,
2013-02-27 00:53:00,65.9,63.8,29.87,WSW,252,9.0,20.0,93,0.00,,,0.00,0,Wunderground v.1.15,2013-02-27 05:53:00,
2013-02-27 00:59:00,65.6,63.5,29.86,West,260,9.0,20.0,93,0.00,,,0.00,0,Wunderground v.1.15,2013-02-27 05:59:00,
2013-02-27 01:04:00,65.6,63.5,29.87,West,259,9.0,20.0,93,0.00,,,0.00,0,Wunderground v.1.15,2013-02-27 06:04:00,
2013-02-27 01:10:00,65.6,63.8,29.87,West,263,9.0,19.0,94,0.00,,,0.00,0,Wunderground v.1.15,2013-02-27 06:10:00,
2013-02-27 01:15:00,65.5,63.7,29.87,WSW,254,8.0,19.0,94,0.00,,,0.00,0,Wunderground v.1.15,2013-02-27 06:15:00,
2013-02-27 01:20:00,65.5,63.7,29.87,WSW,250,8.0,8.0,94,0.00,,,0.00,0,Wunderground v.1.15,2013-02-27 06:20:00,
2013-02-27 01:25:00,65.4,63.6,29.87,WSW,251,8.0,19.0,94,0.00,,,0.00,0,Wunderground v.1.15,2013-02-27 06:25:00,
2013-02-27 01:31:00,65.4,63.6,29.87,WSW,251,8.0,19.0,94,0.00,,,0.00,0,Wunderground v.1.15,2013-02-27 06:31:00,
2013-02-27 01:36:00,65.4,63.6,29.87,WSW,258,8.0,19.0,94,0.00,,,0.00,0,Wunderground v.1.15,2013-02-27 06:36:00,
2013-02-27 01:41:00,65.4,63.6,29.87,WSW,255,8.0,19.0,94,0.00,,,0.00,0,Wunderground v.1.15,2013-02-27 06:41:00,
2013-02-27 01:47:00,65.4,63.6,29.87,WSW,256,9.0,19.0,94,0.00,,,0.00,0,Wunderground v.1.15,2013-02-27 06:47:00,
2013-02-27 01:52:00,65.3,63.5,29.86,West,259,9.0,19.0,94,0.00,,,0.00,0,Wunderground v.1.15,2013-02-27 06:52:00,
2013-02-27 01:57:00,65.3,63.5,29.86,WSW,252,9.0,19.0,94,0.00,,,0.00,0,Wunderground v.1.15,2013-02-27 06:57:00,
2013-02-27 02:03:00,65.3,63.5,29.87,WSW,256,9.0,19.0,94,0.00,,,0.00,0,Wunderground v.1.15,2013-02-27 07:03:00,
2013-02-27 02:09:00,65.4,63.6,29.86,West,259,9.0,19.0,94,0.00,,,0.00,0,Wunderground v.1.15,2013-02-27 07:09:00,
2013-02-27 02:14:00,65.4,63.6,29.86,WSW,256,9.0,15.0,94,0.00,,,0.00,0,Wunderground v.1.15,2013-02-27 07:14:00,
2013-02-27 02:19:00,65.4,63.3,29.86,WSW,256,8.0,15.0,93,0.00,,,0.00,0,Wunderground v.1.15,2013-02-27 07:19:00,
2013-02-27 02:25:00,65.4,63.3,29.87,West,270,10.0,15.0,93,0.00,,,0.00,0,Wunderground v.1.15,2013-02-27 07:25:00,
2013-02-27 02:30:00,65.4,63.3,29.86,West,267,10.0,10.0,93,0.00,,,0.00,0,Wunderground v.1.15,2013-02-27 07:30:00,
2013-02-27 02:35:00,65.6,63.5,29.86,West,266,9.0,15.0,93,0.00,,,0.00,0,Wunderground v.1.15,2013-02-27 07:35:00,
2013-02-27 02:41:00,65.5,63.4,29.86,West,271,10.0,15.0,93,0.00,,,0.00,0,Wunderground v.1.15,2013-02-27 07:41:00,
2013-02-27 02:46:00,65.4,63.3,29.86,West,265,9.0,15.0,93,0.00,,,0.00,0,Wunderground v.1.15,2013-02-27 07:46:00,
2013-02-27 02:51:00,65.4,63.3,29.86,West,262,9.0,15.0,93,0.00,,,0.00,0,Wunderground v.1.15,2013-02-27 07:51:00,
2013-02-27 02:56:00,65.4,63.3,29.86,West,263,9.0,15.0,93,0.00,,,0.00,0,Wunderground v.1.15,2013-02-27 07:56:00,
2013-02-27 03:02:00,65.3,63.2,29.86,West,265,8.0,14.0,93,0.00,,,0.00,0,Wunderground v.1.15,2013-02-27 08:02:00,
2013-02-27 03:07:00,65.3,63.2,29.86,West,262,8.0,14.0,93,0.00,,,0.00,0,Wunderground v.1.15,2013-02-27 08:07:00,
2013-02-27 03:12:00,65.2,63.1,29.86,West,264,8.0,14.0,93,0.00,,,0.00,0,Wunderground v.1.15,2013-02-27 08:12:00,
2013-02-27 03:18:00,65.1,63.0,29.85,West,267,8.0,14.0,93,0.00,,,0.00,0,Wunderground v.1.15,2013-02-27 08:18:00,
2013-02-27 03:23:00,65.2,63.1,29.86,West,267,9.0,14.0,93,0.00,,,0.00,0,Wunderground v.1.15,2013-02-27 08:23:00,
2013-02-27 03:28:00,65.1,63.0,29.86,West,263,9.0,14.0,93,0.00,,,0.00,0,Wunderground v.1.15,2013-02-27 08:28:00,
2013-02-27 03:34:00,65.0,62.6,29.86,West,262,8.0,14.0,92,0.00,,,0.00,0,Wunderground v.1.15,2013-02-27 08:34:00,
2013-02-27 03:39:00,65.0,62.9,29.85,West,261,8.0,14.0,93,0.00,,,0.00,0,Wunderground v.1.15,2013-02-27 08:39:00,
2013-02-27 03:44:00,65.0,62.9,29.86,West,259,8.0,14.0,93,0.00,,,0.00,0,Wunderground v.1.15,2013-02-27 08:44:00,
2013-02-27 03:50:00,64.9,62.8,29.86,West,264,8.0,14.0,93,0.00,,,0.00,0,Wunderground v.1.15,2013-02-27 08:50:00,
2013-02-27 03:55:00,64.9,62.8,29.87,West,274,8.0,14.0,93,0.00,,,0.00,0,Wunderground v.1.15,2013-02-27 08:55:00,
2013-02-27 04:00:00,64.9,62.8,29.86,West,272,9.0,14.0,93,0.00,,,0.00,0,Wunderground v.1.15,2013-02-27 09:00:00,
2013-02-27 04:06:00,64.8,62.7,29.86,West,264,9.0,14.0,93,0.00,,,0.00,0,Wunderground v.1.15,2013-02-27 09:06:00,
2013-02-27 04:11:00,64.6,62.5,29.86,West,268,8.0,14.0,93,0.00,,,0.00,0,Wunderground v.1.15,2013-02-27 09:11:00,
2013-02-27 04:16:00,64.5,62.4,29.86,West,274,8.0,14.0,93,0.00,,,0.00,0,Wunderground v.1.15,2013-02-27 09:16:00,
2013-02-27 04:22:00,64.6,62.5,29.87,WNW,283,8.0,14.0,93,0.00,,,0.00,0,Wunderground v.1.15,2013-02-27 09:22:00,
2013-02-27 04:27:00,64.5,62.4,29.87,West,272,8.0,14.0,93,0.00,,,0.00,0,Wunderground v.1.15,2013-02-27 09:27:00,
2013-02-27 04:32:00,64.5,62.4,29.87,West,275,8.0,14.0,93,0.00,,,0.00,0,Wunderground v.1.15,2013-02-27 09:32:00,
2013-02-27 04:37:00,64.4,62.3,29.87,West,277,8.0,14.0,93,0.00,,,0.00,0,Wunderground v.1.15,2013-02-27 09:37:00,
2013-02-27 04:43:00,64.3,62.2,29.87,West,278,7.0,14.0,93,0.00,,,0.00,0,Wunderground v.1.15,2013-02-27 09:43:00,
2013-02-27 04:48:00,64.1,62.0,29.88,WNW,290,7.0,14.0,93,0.00,,,0.00,0,Wunderground v.1.15,2013-02-27 09:48:00,
2013-02-27 04:53:00,64.0,61.9,29.87,WNW,283,7.0,14.0,93,0.00,,,0.00,0,Wunderground v.1.15,2013-02-27 09:53:00,
2013-02-27 04:59:00,63.9,61.8,29.88,West,277,6.0,14.0,93,0.00,,,0.00,0,Wunderground v.1.15,2013-02-27 09:59:00,
2013-02-27 05:04:00,63.8,61.7,29.87,WNW,290,6.0,14.0,93,0.00,,,0.00,0,Wunderground v.1.15,2013-02-27 10:04:00,
2013-02-27 05:09:00,63.6,61.5,29.87,WNW,298,6.0,14.0,93,0.00,,,0.00,0,Wunderground v.1.15,2013-02-27 10:09:00,
2013-02-27 05:15:00,63.5,61.4,29.87,WNW,288,6.0,12.0,93,0.00,,,0.00,0,Wunderground v.1.15,2013-02-27 10:15:00,
2013-02-27 05:20:00,63.5,61.4,29.88,WNW,294,6.0,12.0,93,0.00,,,0.00,0,Wunderground v.1.15,2013-02-27 10:20:00,
2013-02-27 05:25:00,63.4,61.0,29.88,WNW,298,6.0,12.0,92,0.00,,,0.00,0,Wunderground v.1.15,2013-02-27 10:25:00,
2013-02-27 05:31:00,63.2,60.8,29.88,NW,311,7.0,12.0,92,0.00,,,0.00,0,Wunderground v.1.15,2013-02-27 10:31:00,
2013-02-27 05:36:00,63.0,60.6,29.88,NW,304,7.0,12.0,92,0.00,,,0.00,0,Wunderground v.1.15,2013-02-27 10:36:00,
2013-02-27 05:42:00,63.0,60.3,29.88,NW,307,6.0,12.0,91,0.00,,,0.00,0,Wunderground v.1.15,2013-02-27 10:42:00,
2013-02-27 05:47:00,62.9,60.2,29.88,NW,306,7.0,12.0,91,0.00,,,0.00,0,Wunderground v.1.15,2013-02-27 10:47:00,
2013-02-27 05:52:00,62.9,60.2,29.88,NW,308,7.0,12.0,91,0.00,,,0.00,0,Wunderground v.1.15,2013-02-27 10:52:00,
2013-02-27 05:58:00,62.9,59.9,29.88,WNW,300,7.0,12.0,90,0.00,,,0.00,0,Wunderground v.1.15,2013-02-27 10:58:00,
2013-02-27 06:03:00,62.9,59.9,29.88,NW,304,7.0,13.0,90,0.00,,,0.00,0,Wunderground v.1.15,2013-02-27 11:03:00,
2013-02-27 06:08:00,62.9,59.6,29.88,WNW,296,6.0,13.0,89,0.00,,,0.00,0,Wunderground v.1.15,2013-02-27 11:08:00,
2013-02-27 06:14:00,62.9,59.6,29.88,WNW,297,6.0,13.0,89,0.00,,,0.00,0,Wunderground v.1.15,2013-02-27 11:14:00,
2013-02-27 06:19:00,62.9,59.6,29.88,WNW,298,5.0,13.0,89,0.00,,,0.00,0,Wunderground v.1.15,2013-02-27 11:19:00,
2013-02-27 06:24:00,62.8,59.5,29.88,WNW,300,5.0,13.0,89,0.00,,,0.00,0,Wunderground v.1.15,2013-02-27 11:24:00,
2013-02-27 06:29:00,62.7,59.4,29.89,NW,304,5.0,13.0,89,0.00,,,0.00,0,Wunderground v.1.15,2013-02-27 11:29:00,
2013-02-27 06:35:00,62.7,59.4,29.89,WNW,294,5.0,13.0,89,0.00,,,0.00,0,Wunderground v.1.15,2013-02-27 11:35:00,
2013-02-27 06:40:00,62.6,59.3,29.89,WNW,294,5.0,13.0,89,0.00,,,0.00,0,Wunderground v.1.15,2013-02-27 11:40:00,
2013-02-27 06:45:00,62.5,59.2,29.89,WNW,297,4.0,13.0,89,0.00,,,0.00,0,Wunderground v.1.15,2013-02-27 11:45:00,
2013-02-27 06:50:00,62.4,59.1,29.89,WNW,302,5.0,13.0,89,0.00,,,0.00,0,Wunderground v.1.15,2013-02-27 11:50:00,
2013-02-27 06:56:00,62.3,58.7,29.89,NW,304,5.0,13.0,88,0.00,,,0.00,7,Wunderground v.1.15,2013-02-27 11:56:00,
2013-02-27 07:01:00,62.2,58.6,29.89,NW,304,5.0,14.0,88,0.00,,,0.00,16,Wunderground v.1.15,2013-02-27 12:01:00,
2013-02-27 07:07:00,62.2,58.9,29.90,WNW,301,5.0,14.0,89,0.00,,,0.00,25,Wunderground v.1.15,2013-02-27 12:07:00,
2013-02-27 07:12:00,62.3,59.0,29.90,WNW,296,5.0,14.0,89,0.00,,,0.00,28,Wunderground v.1.15,2013-02-27 12:12:00,
2013-02-27 07:17:00,62.3,59.0,29.90,WNW,294,6.0,14.0,89,0.00,,,0.00,39,Wunderground v.1.15,2013-02-27 12:17:00,
2013-02-27 07:22:00,62.5,59.2,29.90,NW,305,6.0,14.0,89,0.00,,,0.00,54,Wunderground v.1.15,2013-02-27 12:22:00,
2013-02-27 07:28:00,62.5,58.9,29.90,NW,317,6.0,14.0,88,0.00,,,0.00,76,Wunderground v.1.15,2013-02-27 12:28:00,
2013-02-27 07:33:00,62.5,58.6,29.90,NW,323,5.0,14.0,87,0.00,,,0.00,95,Wunderground v.1.15,2013-02-27 12:33:00,
2013-02-27 07:38:00,62.7,58.8,29.90,NW,319,4.0,14.0,87,0.00,,,0.00,93,Wunderground v.1.15,2013-02-27 12:38:00,
2013-02-27 07:44:00,62.9,58.6,29.90,NW,321,4.0,14.0,86,0.00,,,0.00,109,Wunderground v.1.15,2013-02-27 12:44:00,
2013-02-27 07:49:00,63.0,58.7,29.91,NNW,344,5.0,14.0,86,0.00,,,0.00,76,Wunderground v.1.15,2013-02-27 12:49:00,
2013-02-27 07:55:00,63.1,58.8,29.92,NW,312,6.0,14.0,86,0.00,,,0.00,104,Wunderground v.1.15,2013-02-27 12:55:00,
2013-02-27 08:01:00,63.1,58.5,29.92,NW,321,5.0,14.0,85,0.00,,,0.00,109,Wunderground v.1.15,2013-02-27 13:01:00,
2013-02-27 08:06:00,63.2,58.6,29.92,NNW,335,5.0,14.0,85,0.00,,,0.00,127,Wunderground v.1.15,2013-02-27 13:06:00,
2013-02-27 08:11:00,63.2,58.6,29.92,NW,325,5.0,11.0,85,0.00,,,0.00,127,Wunderground v.1.15,2013-02-27 13:11:00,
2013-02-27 08:16:00,63.4,58.8,29.92,NW,323,5.0,11.0,85,0.00,,,0.00,178,Wunderground v.1.15,2013-02-27 13:16:00,
2013-02-27 08:22:00,63.6,59.0,29.92,NNW,342,4.0,11.0,85,0.00,,,0.00,234,Wunderground v.1.15,2013-02-27 13:22:00,
2013-02-27 08:27:00,64.0,59.1,29.92,NNW,334,6.0,11.0,84,0.00,,,0.00,295,Wunderground v.1.15,2013-02-27 13:27:00,
2013-02-27 08:32:00,64.1,58.8,29.93,NNW,337,6.0,11.0,83,0.00,,,0.00,234,Wunderground v.1.15,2013-02-27 13:32:00,
2013-02-27 08:37:00,64.2,58.9,29.93,NW,326,6.0,11.0,83,0.00,,,0.00,288,Wunderground v.1.15,2013-02-27 13:37:00,
2013-02-27 08:43:00,64.5,59.2,29.93,NW,322,6.0,11.0,83,0.00,,,0.00,374,Wunderground v.1.15,2013-02-27 13:43:00,
2013-02-27 08:48:00,64.7,59.4,29.94,North,354,6.0,11.0,83,0.00,,,0.00,163,Wunderground v.1.15,2013-02-27 13:48:00,
2013-02-27 08:53:00,64.8,59.2,29.94,North,3,5.0,11.0,82,0.00,,,0.00,241,Wunderground v.1.15,2013-02-27 13:53:00,
2013-02-27 08:59:00,64.7,58.7,29.94,NNW,341,5.0,11.0,81,0.00,,,0.00,223,Wunderground v.1.15,2013-02-27 13:59:00,
2013-02-27 09:04:00,64.6,59.0,29.94,North,2,5.0,13.0,82,0.00,,,0.00,355,Wunderground v.1.15,2013-02-27 14:04:00,
2013-02-27 09:10:00,64.6,59.0,29.94,North,2,4.0,13.0,82,0.00,,,0.00,171,Wunderground v.1.15,2013-02-27 14:10:00,
2013-02-27 09:15:00,64.4,58.4,29.95,NNW,344,6.0,13.0,81,0.00,,,0.00,206,Wunderground v.1.15,2013-02-27 14:15:00,
2013-02-27 09:21:00,64.4,58.8,29.94,NW,304,6.0,13.0,82,0.00,,,0.00,248,Wunderground v.1.15,2013-02-27 14:21:00,
2013-02-27 09:26:00,64.6,58.6,29.95,NNW,346,6.0,13.0,81,0.00,,,0.00,346,Wunderground v.1.15,2013-02-27 14:26:00,
2013-02-27 09:31:00,64.7,58.4,29.95,NNW,333,6.0,13.0,80,0.00,,,0.00,297,Wunderground v.1.15,2013-02-27 14:31:00,
2013-02-27 09:36:00,64.8,58.5,29.95,NNW,330,6.0,13.0,80,0.00,,,0.00,325,Wunderground v.1.15,2013-02-27 14:36:00,
2013-02-27 09:42:00,65.0,58.7,29.95,NNW,335,7.0,13.0,80,0.00,,,0.00,466,Wunderground v.1.15,2013-02-27 14:42:00,
2013-02-27 09:47:00,65.2,58.9,29.95,NW,324,9.0,13.0,80,0.00,,,0.00,527,Wunderground v.1.15,2013-02-27 14:47:00,
2013-02-27 09:52:00,65.4,59.1,29.95,NNW,346,7.0,13.0,80,0.00,,,0.00,573,Wunderground v.1.15,2013-02-27 14:52:00,
2013-02-27 09:58:00,65.7,58.3,29.95,North,355,5.0,13.0,77,0.00,,,0.00,334,Wunderground v.1.15,2013-02-27 14:58:00,
2013-02-27 10:03:00,65.4,58.0,29.95,North,7,4.0,13.0,77,0.00,,,0.00,251,Wunderground v.1.15,2013-02-27 15:03:00,
2013-02-27 10:08:00,65.4,58.7,29.95,NW,304,4.0,13.0,79,0.00,,,0.00,485,Wunderground v.1.15,2013-02-27 15:08:00,
2013-02-27 10:14:00,65.5,58.8,29.95,NNW,335,6.0,13.0,79,0.00,,,0.00,438,Wunderground v.1.15,2013-02-27 15:14:00,
2013-02-27 10:19:00,65.4,58.0,29.95,NW,306,7.0,13.0,77,0.00,,,0.00,557,Wunderground v.1.15,2013-02-27 15:19:00,
2013-02-27 10:24:00,65.5,58.1,29.96,NNW,346,6.0,13.0,77,0.00,,,0.00,490,Wunderground v.1.15,2013-02-27 15:24:00,
2013-02-27 10:30:00,66.1,59.7,29.96,NW,316,6.0,13.0,80,0.00,,,0.00,656,Wunderground v.1.15,2013-02-27 15:30:00,
2013-02-27 10:35:00,66.4,59.3,29.96,NW,306,6.0,13.0,78,0.00,,,0.00,652,Wunderground v.1.15,2013-02-27 15:35:00,
2013-02-27 10:40:00,66.7,59.3,29.96,WNW,295,6.0,13.0,77,0.00,,,0.00,782,Wunderground v.1.15,2013-02-27 15:40:00,
2013-02-27 10:46:00,66.8,59.4,29.96,WNW,298,6.0,13.0,77,0.00,,,0.00,752,Wunderground v.1.15,2013-02-27 15:46:00,
2013-02-27 10:51:00,67.4,60.3,29.96,WNW,290,7.0,13.0,78,0.00,,,0.00,863,Wunderground v.1.15,2013-02-27 15:51:00,
2013-02-27 10:56:00,67.6,59.0,29.96,NW,312,8.0,15.0,74,0.00,,,0.00,422,Wunderground v.1.15,2013-02-27 15:56:00,
2013-02-27 11:01:00,67.3,59.5,29.96,NW,309,9.0,15.0,76,0.00,,,0.00,330,Wunderground v.1.15,2013-02-27 16:01:00,
2013-02-27 11:07:00,67.1,59.3,29.96,NW,304,8.0,15.0,76,0.00,,,0.00,694,Wunderground v.1.15,2013-02-27 16:07:00,
2013-02-27 11:12:00,67.0,58.8,29.96,NW,307,9.0,15.0,75,0.00,,,0.00,619,Wunderground v.1.15,2013-02-27 16:12:00,
2013-02-27 11:17:00,67.0,58.8,29.96,NW,312,9.0,15.0,75,0.00,,,0.00,552,Wunderground v.1.15,2013-02-27 16:17:00,
2013-02-27 11:23:00,66.8,58.2,29.96,WNW,300,9.0,15.0,74,0.00,,,0.00,835,Wunderground v.1.15,2013-02-27 16:23:00,
2013-02-27 11:28:00,67.3,59.8,29.96,WNW,303,9.0,15.0,77,0.00,,,0.00,705,Wunderground v.1.15,2013-02-27 16:28:00,
2013-02-27 11:33:00,67.5,58.5,29.96,NW,317,9.0,15.0,73,0.00,,,0.00,763,Wunderground v.1.15,2013-02-27 16:33:00,
2013-02-27 11:39:00,67.4,59.2,29.94,WNW,290,8.0,15.0,75,0.00,,,0.00,837,Wunderground v.1.15,2013-02-27 16:39:00,
2013-02-27 11:44:00,67.7,58.7,29.95,WNW,286,8.0,15.0,73,0.00,,,0.00,854,Wunderground v.1.15,2013-02-27 16:44:00,
2013-02-27 11:49:00,67.9,59.7,29.94,WNW,294,7.0,15.0,75,0.00,,,0.00,819,Wunderground v.1.15,2013-02-27 16:49:00,
2013-02-27 11:54:00,68.3,60.8,29.94,WNW,291,7.0,15.0,77,0.00,,,0.00,853,Wunderground v.1.15,2013-02-27 16:54:00,
2013-02-27 12:00:00,68.6,59.6,29.94,WNW,292,7.0,15.0,73,0.00,,,0.00,828,Wunderground v.1.15,2013-02-27 17:00:00,
2013-02-27 12:05:00,68.8,59.0,29.94,WNW,298,6.0,19.0,71,0.00,,,0.00,844,Wunderground v.1.15,2013-02-27 17:05:00,
2013-02-27 12:10:00,68.8,59.4,29.94,WNW,297,5.0,5.0,72,0.00,,,0.00,819,Wunderground v.1.15,2013-02-27 17:10:00,
2013-02-27 12:16:00,69.0,60.0,29.94,West,277,6.0,19.0,73,0.00,,,0.00,840,Wunderground v.1.15,2013-02-27 17:16:00,
2013-02-27 12:21:00,69.2,59.4,29.94,West,275,7.0,7.0,71,0.00,,,0.00,847,Wunderground v.1.15,2013-02-27 17:21:00,
2013-02-27 12:26:00,69.3,59.9,29.93,WNW,284,7.0,19.0,72,0.00,,,0.00,856,Wunderground v.1.15,2013-02-27 17:26:00,
2013-02-27 12:32:00,69.4,60.0,29.93,WNW,294,9.0,19.0,72,0.00,,,0.00,854,Wunderground v.1.15,2013-02-27 17:32:00,
2013-02-27 12:38:00,69.8,59.6,29.93,WNW,294,6.0,19.0,70,0.00,,,0.00,865,Wunderground v.1.15,2013-02-27 17:38:00,
2013-02-27 12:43:00,70.1,59.9,29.93,NW,305,5.0,19.0,70,0.00,,,0.00,856,Wunderground v.1.15,2013-02-27 17:43:00,
2013-02-27 12:48:00,70.3,60.4,29.93,WNW,283,6.0,19.0,71,0.00,,,0.00,865,Wunderground v.1.15,2013-02-27 17:48:00,
2013-02-27 12:54:00,70.5,59.0,29.93,WNW,303,7.0,19.0,67,0.00,,,0.00,863,Wunderground v.1.15,2013-02-27 17:54:00,
2013-02-27 12:59:00,70.6,60.3,29.92,West,272,7.0,19.0,70,0.00,,,0.00,882,Wunderground v.1.15,2013-02-27 17:59:00,
2013-02-27 13:04:00,70.9,59.8,29.93,West,272,5.0,13.0,68,0.00,,,0.00,819,Wunderground v.1.15,2013-02-27 18:04:00,
2013-02-27 13:10:00,71.4,60.7,29.92,WNW,283,3.0,13.0,69,0.00,,,0.00,844,Wunderground v.1.15,2013-02-27 18:10:00,
2013-02-27 13:15:00,71.7,61.4,29.92,WNW,293,5.0,13.0,70,0.00,,,0.00,861,Wunderground v.1.15,2013-02-27 18:15:00,
2013-02-27 13:20:00,71.9,59.9,29.92,WNW,286,6.0,6.0,66,0.00,,,0.00,861,Wunderground v.1.15,2013-02-27 18:20:00,
2013-02-27 13:25:00,72.0,60.0,29.92,West,268,6.0,13.0,66,0.00,,,0.00,830,Wunderground v.1.15,2013-02-27 18:25:00,
2013-02-27 13:31:00,72.0,60.4,29.91,West,273,7.0,13.0,67,0.00,,,0.00,847,Wunderground v.1.15,2013-02-27 18:31:00,
2013-02-27 13:36:00,72.1,61.0,29.92,West,276,7.0,13.0,68,0.00,,,0.00,763,Wunderground v.1.15,2013-02-27 18:36:00,
2013-02-27 13:41:00,72.2,60.6,29.91,West,276,7.0,13.0,67,0.00,,,0.00,468,Wunderground v.1.15,2013-02-27 18:41:00,
2013-02-27 13:47:00,72.3,60.3,29.91,West,275,6.0,13.0,66,0.00,,,0.00,990,Wunderground v.1.15,2013-02-27 18:47:00,
2013-02-27 13:52:00,72.4,60.8,29.91,WNW,293,5.0,13.0,67,0.00,,,0.00,766,Wunderground v.1.15,2013-02-27 18:52:00,
2013-02-27 13:57:00,72.0,59.6,29.90,WNW,285,7.0,13.0,65,0.00,,,0.00,334,Wunderground v.1.15,2013-02-27 18:57:00,
2013-02-27 14:03:00,71.9,60.8,29.89,West,279,8.0,13.0,68,0.00,,,0.00,401,Wunderground v.1.15,2013-02-27 19:03:00,
2013-02-27 14:08:00,71.9,60.3,29.89,West,261,8.0,13.0,67,0.00,,,0.00,830,Wunderground v.1.15,2013-02-27 19:08:00,
2013-02-27 14:13:00,72.1,60.1,29.89,West,261,7.0,12.0,66,0.00,,,0.00,814,Wunderground v.1.15,2013-02-27 19:13:00,
2013-02-27 14:18:00,72.6,59.3,29.89,West,275,4.0,12.0,63,0.00,,,0.00,693,Wunderground v.1.15,2013-02-27 19:18:00,
2013-02-27 14:24:00,73.0,58.8,29.88,West,275,3.0,12.0,61,0.00,,,0.00,751,Wunderground v.1.15,2013-02-27 19:24:00,
2013-02-27 14:29:00,73.4,58.2,29.88,West,275,1.0,12.0,59,0.00,,,0.00,793,Wunderground v.1.15,2013-02-27 19:29:00,
2013-02-27 14:34:00,73.8,60.4,29.88,West,265,2.0,12.0,63,0.00,,,0.00,759,Wunderground v.1.15,2013-02-27 19:34:00,
2013-02-27 14:40:00,73.7,58.5,29.88,SW,227,5.0,5.0,59,0.00,,,0.00,728,Wunderground v.1.15,2013-02-27 19:40:00,
2013-02-27 14:45:00,73.6,60.2,29.88,SW,230,5.0,12.0,63,0.00,,,0.00,712,Wunderground v.1.15,2013-02-27 19:45:00,
2013-02-27 14:51:00,73.9,60.1,29.88,SW,230,3.0,5.0,62,0.00,,,0.00,708,Wunderground v.1.15,2013-02-27 19:51:00,
2013-02-27 14:56:00,73.6,58.4,29.88,SW,230,2.0,12.0,59,0.00,,,0.00,696,Wunderground v.1.15,2013-02-27 19:56:00,
2013-02-27 15:02:00,73.8,59.5,29.88,SW,230,1.0,12.0,61,0.00,,,0.00,686,Wunderground v.1.15,2013-02-27 20:02:00,
2013-02-27 15:07:00,73.9,59.1,29.88,SW,219,1.0,12.0,60,0.00,,,0.00,666,Wunderground v.1.15,2013-02-27 20:07:00,
2013-02-27 15:13:00,74.5,60.2,29.87,West,260,4.0,12.0,61,0.00,,,0.00,647,Wunderground v.1.15,2013-02-27 20:13:00,
2013-02-27 15:18:00,74.7,59.4,29.87,West,260,6.0,12.0,59,0.00,,,0.00,631,Wunderground v.1.15,2013-02-27 20:18:00,
2013-02-27 15:24:00,74.9,61.9,29.87,WSW,258,7.0,12.0,64,0.00,,,0.00,622,Wunderground v.1.15,2013-02-27 20:24:00,
2013-02-27 15:29:00,75.0,61.1,29.88,West,271,8.0,12.0,62,0.00,,,0.00,504,Wunderground v.1.15,2013-02-27 20:29:00,
2013-02-27 15:34:00,75.1,59.3,29.87,WNW,291,7.0,12.0,58,0.00,,,0.00,394,Wunderground v.1.15,2013-02-27 20:34:00,
2013-02-27 15:40:00,74.8,59.0,29.87,WNW,300,6.0,12.0,58,0.00,,,0.00,485,Wunderground v.1.15,2013-02-27 20:40:00,
2013-02-27 15:45:00,74.8,61.8,29.87,WSW,257,8.0,12.0,64,0.00,,,0.00,288,Wunderground v.1.15,2013-02-27 20:45:00,
2013-02-27 15:51:00,75.0,60.6,29.87,WNW,292,7.0,12.0,61,0.00,,,0.00,533,Wunderground v.1.15,2013-02-27 20:51:00,
2013-02-27 15:56:00,75.3,60.9,29.87,WNW,295,5.0,12.0,61,0.00,,,0.00,276,Wunderground v.1.15,2013-02-27 20:56:00,
2013-02-27 16:01:00,75.2,58.9,29.87,WNW,300,4.0,13.0,57,0.00,,,0.00,313,Wunderground v.1.15,2013-02-27 21:01:00,
2013-02-27 16:07:00,75.6,59.3,29.87,WNW,300,3.0,13.0,57,0.00,,,0.00,599,Wunderground v.1.15,2013-02-27 21:07:00,
2013-02-27 16:12:00,76.1,61.2,29.87,WNW,299,3.0,5.0,60,0.00,,,0.00,229,Wunderground v.1.15,2013-02-27 21:12:00,
2013-02-27 16:18:00,76.2,61.3,29.87,WNW,300,5.0,13.0,60,0.00,,,0.00,490,Wunderground v.1.15,2013-02-27 21:18:00,
2013-02-27 16:23:00,76.2,60.8,29.87,NW,304,6.0,13.0,59,0.00,,,0.00,480,Wunderground v.1.15,2013-02-27 21:23:00,
2013-02-27 16:28:00,76.1,60.2,29.87,NW,317,7.0,13.0,58,0.00,,,0.00,431,Wunderground v.1.15,2013-02-27 21:28:00,
2013-02-27 16:34:00,75.8,60.4,29.87,NW,315,7.0,13.0,59,0.00,,,0.00,371,Wunderground v.1.15,2013-02-27 21:34:00,
2013-02-27 16:39:00,75.6,60.3,29.87,WNW,292,7.0,13.0,59,0.00,,,0.00,357,Wunderground v.1.15,2013-02-27 21:39:00,
2013-02-27 16:45:00,75.5,60.2,29.87,WNW,289,6.0,13.0,59,0.00,,,0.00,334,Wunderground v.1.15,2013-02-27 21:45:00,
2013-02-27 16:50:00,75.6,59.8,29.87,NW,306,5.0,13.0,58,0.00,,,0.00,341,Wunderground v.1.15,2013-02-27 21:50:00,
2013-02-27 16:55:00,75.5,60.6,29.87,WNW,297,7.0,13.0,60,0.00,,,0.00,295,Wunderground v.1.15,2013-02-27 21:55:00,
2013-02-27 17:01:00,75.3,60.5,29.87,NW,304,8.0,10.0,60,0.00,,,0.00,281,Wunderground v.1.15,2013-02-27 22:01:00,
2013-02-27 17:06:00,75.0,58.2,29.87,NW,314,8.0,14.0,56,0.00,,,0.00,225,Wunderground v.1.15,2013-02-27 22:06:00,
2013-02-27 17:12:00,74.7,59.9,29.87,WNW,293,8.0,14.0,60,0.00,,,0.00,135,Wunderground v.1.15,2013-02-27 22:12:00,
2013-02-27 17:17:00,74.4,60.5,29.88,WNW,287,8.0,14.0,62,0.00,,,0.00,179,Wunderground v.1.15,2013-02-27 22:17:00,
2013-02-27 17:22:00,74.3,61.8,29.88,West,280,8.0,14.0,65,0.00,,,0.00,214,Wunderground v.1.15,2013-02-27 22:22:00,
2013-02-27 17:28:00,74.2,61.2,29.88,West,272,8.0,14.0,64,0.00,,,0.00,188,Wunderground v.1.15,2013-02-27 22:28:00,
2013-02-27 17:33:00,74.3,60.0,29.87,West,273,6.0,14.0,61,0.00,,,0.00,137,Wunderground v.1.15,2013-02-27 22:33:00,
2013-02-27 17:38:00,74.5,60.6,29.88,West,273,3.0,14.0,62,0.00,,,0.00,125,Wunderground v.1.15,2013-02-27 22:38:00,
2013-02-27 17:44:00,74.5,60.2,29.88,WNW,299,4.0,14.0,61,0.00,,,0.00,90,Wunderground v.1.15,2013-02-27 22:44:00,
2013-02-27 17:49:00,74.1,58.9,29.88,West,281,6.0,14.0,59,0.00,,,0.00,72,Wunderground v.1.15,2013-02-27 22:49:00,
2013-02-27 17:55:00,73.7,60.3,29.89,West,272,7.0,14.0,63,0.00,,,0.00,56,Wunderground v.1.15,2013-02-27 22:55:00,
2013-02-27 18:00:00,73.3,60.8,29.88,West,271,10.0,14.0,65,0.00,,,0.00,39,Wunderground v.1.15,2013-02-27 23:00:00,
2013-02-27 18:05:00,73.0,60.1,29.88,West,263,12.0,14.0,64,0.00,,,0.00,26,Wunderground v.1.15,2013-02-27 23:05:00,
2013-02-27 18:11:00,72.6,60.2,29.88,WNW,295,10.0,13.0,65,0.00,,,0.00,14,Wunderground v.1.15,2013-02-27 23:11:00,
2013-02-27 18:16:00,72.2,58.9,29.88,WNW,286,9.0,13.0,63,0.00,,,0.00,9,Wunderground v.1.15,2013-02-27 23:16:00,
2013-02-27 18:21:00,71.9,57.7,29.89,WNW,299,9.0,13.0,61,0.00,,,0.00,0,Wunderground v.1.15,2013-02-27 23:21:00,
2013-02-27 18:27:00,71.6,57.0,29.88,NW,320,8.0,13.0,60,0.00,,,0.00,0,Wunderground v.1.15,2013-02-27 23:27:00,
2013-02-27 18:32:00,71.2,56.1,29.88,NNW,333,7.0,13.0,59,0.00,,,0.00,0,Wunderground v.1.15,2013-02-27 23:32:00,
2013-02-27 18:37:00,70.8,55.3,29.89,NNW,328,6.0,13.0,58,0.00,,,0.00,0,Wunderground v.1.15,2013-02-27 23:37:00,
2013-02-27 18:43:00,70.4,55.8,29.89,NNW,328,7.0,13.0,60,0.00,,,0.00,0,Wunderground v.1.15,2013-02-27 23:43:00,
2013-02-27 18:48:00,70.1,55.6,29.89,NW,322,6.0,13.0,60,0.00,,,0.00,0,Wunderground v.1.15,2013-02-27 23:48:00,
2013-02-27 18:53:00,69.7,55.2,29.90,NNW,340,5.0,13.0,60,0.00,,,0.00,0,Wunderground v.1.15,2013-02-27 23:53:00,
2013-02-27 18:59:00,69.4,54.9,29.90,NW,325,6.0,13.0,60,0.00,,,0.00,0,Wunderground v.1.15,2013-02-27 23:59:00,
2013-02-27 19:04:00,69.2,55.2,29.90,NW,313,7.0,17.0,61,0.00,,,0.00,0,Wunderground v.1.15,2013-02-28 00:04:00,
2013-02-27 19:09:00,69.0,55.9,29.90,NW,306,8.0,17.0,63,0.00,,,0.00,0,Wunderground v.1.15,2013-02-28 00:09:00,
2013-02-27 19:15:00,68.7,56.0,29.90,WNW,301,9.0,17.0,64,0.00,,,0.00,0,Wunderground v.1.15,2013-02-28 00:15:00,
2013-02-27 19:20:00,68.5,56.3,29.91,WNW,302,8.0,17.0,65,0.00,,,0.00,0,Wunderground v.1.15,2013-02-28 00:20:00,
2013-02-27 19:26:00,68.1,57.1,29.91,WNW,289,8.0,17.0,68,0.00,,,0.00,0,Wunderground v.1.15,2013-02-28 00:26:00,
2013-02-27 19:31:00,67.8,55.6,29.91,WNW,292,9.0,17.0,65,0.00,,,0.00,0,Wunderground v.1.15,2013-02-28 00:31:00,
2013-02-27 19:37:00,67.6,55.4,29.91,WNW,286,10.0,17.0,65,0.00,,,0.00,0,Wunderground v.1.15,2013-02-28 00:37:00,
2013-02-27 19:42:00,67.5,56.2,29.90,WNW,295,9.0,17.0,67,0.00,,,0.00,0,Wunderground v.1.15,2013-02-28 00:42:00,
2013-02-27 19:47:00,67.2,55.5,29.91,NW,315,9.0,17.0,66,0.00,,,0.00,0,Wunderground v.1.15,2013-02-28 00:47:00,
2013-02-27 19:53:00,66.8,55.5,29.91,NW,305,9.0,17.0,67,0.00,,,0.00,0,Wunderground v.1.15,2013-02-28 00:53:00,
2013-02-27 19:58:00,66.5,56.0,29.91,WNW,295,10.0,17.0,69,0.00,,,0.00,0,Wunderground v.1.15,2013-02-28 00:58:00,
2013-02-27 20:03:00,66.2,55.7,29.91,WNW,293,10.0,16.0,69,0.00,,,0.00,0,Wunderground v.1.15,2013-02-28 01:03:00,
2013-02-27 20:09:00,66.1,57.2,29.91,WNW,285,11.0,16.0,73,0.00,,,0.00,0,Wunderground v.1.15,2013-02-28 01:09:00,
2013-02-27 20:14:00,66.0,57.1,29.91,WNW,289,12.0,16.0,73,0.00,,,0.00,0,Wunderground v.1.15,2013-02-28 01:14:00,
2013-02-27 20:19:00,65.8,56.5,29.91,NW,309,11.0,16.0,72,0.00,,,0.00,0,Wunderground v.1.15,2013-02-28 01:19:00,
2013-02-27 20:25:00,65.3,55.3,29.91,NW,306,9.0,16.0,70,0.00,,,0.00,0,Wunderground v.1.15,2013-02-28 01:25:00,
2013-02-27 20:30:00,64.9,55.3,29.92,NW,304,9.0,16.0,71,0.00,,,0.00,0,Wunderground v.1.15,2013-02-28 01:30:00,
2013-02-27 20:35:00,64.5,54.9,29.92,WNW,295,10.0,16.0,71,0.00,,,0.00,0,Wunderground v.1.15,2013-02-28 01:35:00,
2013-02-27 20:40:00,64.2,54.6,29.92,WNW,293,12.0,16.0,71,0.00,,,0.00,0,Wunderground v.1.15,2013-02-28 01:40:00,
2013-02-27 20:46:00,63.9,54.3,29.92,NW,318,12.0,22.0,71,0.00,,,0.00,0,Wunderground v.1.15,2013-02-28 01:46:00,
2013-02-27 20:51:00,63.6,54.0,29.92,WNW,289,12.0,12.0,71,0.00,,,0.00,0,Wunderground v.1.15,2013-02-28 01:51:00,
2013-02-27 20:56:00,63.5,55.1,29.92,WNW,300,13.0,16.0,74,0.00,,,0.00,0,Wunderground v.1.15,2013-02-28 01:56:00,
2013-02-27 21:02:00,63.3,55.6,29.93,WNW,296,12.0,19.0,76,0.00,,,0.00,0,Wunderground v.1.15,2013-02-28 02:02:00,
2013-02-27 21:07:00,63.0,53.8,29.93,WNW,296,10.0,19.0,72,0.00,,,0.00,0,Wunderground v.1.15,2013-02-28 02:07:00,
2013-02-27 21:12:00,62.8,54.8,29.93,West,281,10.0,19.0,75,0.00,,,0.00,0,Wunderground v.1.15,2013-02-28 02:12:00,
2013-02-27 21:17:00,62.7,54.3,29.93,WNW,289,12.0,19.0,74,0.00,,,0.00,0,Wunderground v.1.15,2013-02-28 02:17:00,
2013-02-27 21:23:00,62.4,54.4,29.93,WNW,296,12.0,19.0,75,0.00,,,0.00,0,Wunderground v.1.15,2013-02-28 02:23:00,
2013-02-27 21:28:00,62.3,54.6,29.93,WNW,294,13.0,21.0,76,0.00,,,0.00,0,Wunderground v.1.15,2013-02-28 02:28:00,
2013-02-27 21:33:00,62.1,54.4,29.93,WNW,283,13.0,19.0,76,0.00,,,0.00,0,Wunderground v.1.15,2013-02-28 02:33:00,
2013-02-27 21:39:00,61.8,54.5,29.93,WNW,298,12.0,19.0,77,0.00,,,0.00,0,Wunderground v.1.15,2013-02-28 02:39:00,
2013-02-27 21:44:00,61.4,53.0,29.93,WNW,296,11.0,19.0,74,0.00,,,0.00,0,Wunderground v.1.15,2013-02-28 02:44:00,
2013-02-27 21:49:00,61.1,53.8,29.93,WNW,287,11.0,19.0,77,0.00,,,0.00,0,Wunderground v.1.15,2013-02-28 02:49:00,
2013-02-27 21:55:00,60.9,53.6,29.93,WNW,293,11.0,19.0,77,0.00,,,0.00,0,Wunderground v.1.15,2013-02-28 02:55:00,
2013-02-27 22:01:00,60.5,52.9,29.94,WNW,303,10.0,22.0,76,0.00,,,0.00,0,Wunderground v.1.15,2013-02-28 03:01:00,
2013-02-27 22:06:00,60.5,54.0,29.94,WNW,286,11.0,22.0,79,0.00,,,0.00,0,Wunderground v.1.15,2013-02-28 03:06:00,
2013-02-27 22:11:00,60.3,52.7,29.95,NW,313,12.0,22.0,76,0.00,,,0.00,0,Wunderground v.1.15,2013-02-28 03:11:00,
2013-02-27 22:17:00,60.0,52.8,29.94,WNW,287,11.0,22.0,77,0.00,,,0.00,0,Wunderground v.1.15,2013-02-28 03:17:00,
2013-02-27 22:22:00,59.7,52.5,29.94,NW,308,11.0,22.0,77,0.00,,,0.00,0,Wunderground v.1.15,2013-02-28 03:22:00,
2013-02-27 22:27:00,59.4,52.2,29.94,West,275,10.0,22.0,77,0.00,,,0.00,0,Wunderground v.1.15,2013-02-28 03:27:00,
2013-02-27 22:33:00,59.4,53.2,29.94,WNW,297,10.0,22.0,80,0.00,,,0.00,0,Wunderground v.1.15,2013-02-28 03:33:00,
2013-02-27 22:38:00,59.4,53.2,29.94,WNW,290,12.0,22.0,80,0.00,,,0.00,0,Wunderground v.1.15,2013-02-28 03:38:00,
2013-02-27 22:43:00,59.1,52.6,29.95,NW,311,12.0,22.0,79,0.00,,,0.00,0,Wunderground v.1.15,2013-02-28 03:43:00,
2013-02-27 22:49:00,58.9,52.4,29.94,NW,313,13.0,22.0,79,0.00,,,0.00,0,Wunderground v.1.15,2013-02-28 03:49:00,
2013-02-27 22:54:00,58.7,52.5,29.94,WNW,297,12.0,22.0,80,0.00,,,0.00,0,Wunderground v.1.15,2013-02-28 03:54:00,
2013-02-27 22:59:00,58.5,52.4,29.94,WNW,294,11.0,22.0,80,0.00,,,0.00,0,Wunderground v.1.15,2013-02-28 03:59:00,
2013-02-27 23:05:00,58.4,52.6,29.94,WNW,296,11.0,22.0,81,0.00,,,0.00,0,Wunderground v.1.15,2013-02-28 04:05:00,
2013-02-27 23:10:00,58.2,52.1,29.95,WNW,298,11.0,11.0,80,0.00,,,0.00,0,Wunderground v.1.15,2013-02-28 04:10:00,
2013-02-27 23:15:00,58.1,52.3,29.94,WNW,297,11.0,19.0,81,0.00,,,0.00,0,Wunderground v.1.15,2013-02-28 04:15:00,
2013-02-27 23:21:00,58.0,52.2,29.95,WNW,284,10.0,19.0,81,0.00,,,0.00,0,Wunderground v.1.15,2013-02-28 04:21:00,
2013-02-27 23:26:00,58.0,52.5,29.95,WNW,299,10.0,19.0,82,0.00,,,0.00,0,Wunderground v.1.15,2013-02-28 04:26:00,
2013-02-27 23:31:00,58.1,53.0,29.94,WNW,299,10.0,19.0,83,0.00,,,0.00,0,Wunderground v.1.15,2013-02-28 04:31:00,
2013-02-27 23:37:00,58.0,52.5,29.95,WNW,300,10.0,19.0,82,0.00,,,0.00,0,Wunderground v.1.15,2013-02-28 04:37:00,
2013-02-27 23:42:00,57.8,52.0,29.94,WNW,302,10.0,19.0,81,0.00,,,0.00,0,Wunderground v.1.15,2013-02-28 04:42:00,
2013-02-27 23:47:00,57.7,51.6,29.94,WNW,294,9.0,19.0,80,0.00,,,0.00,0,Wunderground v.1.15,2013-02-28 04:47:00,
2013-02-27 23:52:00,57.7,52.2,29.94,NW,304,10.0,19.0,82,0.00,,,0.00,0,Wunderground v.1.15,2013-02-28 04:52:00,
2013-02-27 23:58:00,57.7,52.2,29.94,WNW,302,10.0,19.0,82,0.00,,,0.00,0,Wunderground v.1.15,2013-02-28 04:58:00,